Regional Weather Roundup
Issued by NWS

Home | Current Version | Previous Version | Text Only | Print | Product List | Glossary Off
Versions: 1 2 3 4 5 6 7 8 9 10 11 12 13 14 15 16 17 18 19 20 21 22 23 24 25 26 27 28 29 30 31 32 33 34 35 36 37 38 39 40 41 42 43 44 45 46 47 48 49 50

000
ASUS43 KMKX 100400
RWRWI

WISCONSIN REGIONAL WEATHER ROUNDUP
NATIONAL WEATHER SERVICE MILWAUKEE/SULLIVAN WI
1000 PM CST TUE FEB 09 2016

NOTE: "FAIR" INDICATES FEW OR NO CLOUDS BELOW 12,000 FEET WITH NO
SIGNIFICANT WEATHER AND/OR OBSTRUCTIONS TO VISIBILITY.

WIZ001-002-006>008-014>016-023>028-100500-
NORTHWEST WISCONSIN

CITY           SKY/WX    TMP DP  RH WIND       PRES   REMARKS
SUPERIOR ARPT  CLEAR      4  -5  64 N8        30.16S WCI  -9
ASHLAND        LGT SNOW   7   2  80 N13       30.09S WCI  -9
HAYWARD        CLOUDY     5  -4  66 VRB5      30.06S WCI  -4
SIREN          CLEAR      5  -6  62 N6        30.11S WCI  -6
CUMBERLAND     CLEAR      5  -8  56 N13       30.06S WCI -12
RICE LAKE      CLEAR      6  -6  57 NW8       30.09R WCI  -7
CHETEK         CLEAR      5  -6  61 MISG      30.07S
LADYSMITH      CLOUDY     9   1  69 NW10      30.03S WCI  -6
EAU CLAIRE     CLEAR      7  -7  52 NW10      30.07S WCI  -8
MENOMONIE      CLEAR      9  -5  51 NW10      30.09R WCI  -5
NEW RICHMOND   CLEAR      5  -5  64 NW6       30.11S WCI  -6
OSCEOLA        CLEAR      8  -3  61 NW7       30.15R WCI  -4
$$

WIZ003>005-009-010-017-018-100500-
NORTH CENTRAL WISCONSIN

CITY           SKY/WX    TMP DP  RH WIND       PRES   REMARKS
MANITOWISH WTR LGT SNOW   7   1  78 N8        29.92F WCI  -6
ARBOR VITAE    LGT SNOW  11   5  76 N14G20    29.92S WCI  -4
WOODRUFF       LGT SNOW  11   5  76 N14G20    29.92S WCI  -4
RHINELANDER    LGT SNOW   8   0  69 N7G20     29.90F WCI  -3
EAGLE RIVER    CLOUDY     8   0  69 N10G21    29.90S WCI  -7
LAND O LAKES   LGT SNOW   8   3  80 N10G18    29.91S WCI  -7
PHILLIPS       CLOUDY     6   0  74 NW7       29.96F WCI  -5
TOMAHAWK       CLOUDY     8   1  75 NW12G17   29.94S WCI  -7
MEDFORD        CLOUDY     8   0  70 N14       29.95F WCI  -9
MERRILL        CLOUDY     9   1  68 N9        29.95S WCI  -4
$$

WIZ029-030-035-036-043>047-100500-
CENTRAL WISCONSIN

CITY           SKY/WX    TMP DP  RH WIND       PRES   REMARKS
WAUSAU         CLOUDY    11   0  61 N12       29.94S WCI  -3
MOSINEE        CLOUDY    10   1  67 NW13      29.96S WCI  -5
MARSHFIELD     CLOUDY    10  -3  55 N14       29.96F WCI  -6
STEVENS POINT  CLOUDY     9  -1  65 NW9G16    29.97S WCI  -5
WAUPACA        CLOUDY    15   1  56 NW13G20   29.98R WCI   0
WAUTOMA        NOT AVBL
WISC RAPIDS    CLOUDY    10  -1  61 N8        30.00F WCI  -2
CAMP DOUGLAS   NOT AVBL
$$

WIZ011>013-019>022-031-037>040-048>050-100500-
NORTHEAST WISCONSIN

CITY           SKY/WX    TMP DP  RH WIND       PRES   REMARKS
ANTIGO         CLOUDY     8   1  73 N16       29.90S WCI  -9
SHAWANO        CLOUDY    15   1  53 N13G18    29.95R WCI   1
OCONTO         CLOUDY    13   3  63 NW8G18    29.93S WCI   2
STURGEON BAY   CLOUDY    12   3  67 NW15G22   29.90S WCI  -4
GREEN BAY      CLOUDY    13   3  64 NW13      29.93F WCI  -2
MANITOWOC      NOT AVBL
APPLETON       MOCLDY    12  -2  52 NW14      29.92S WCI  -3
CLINTONVILLE   CLOUDY    14   0  52 N9        29.95S WCI   2
OSHKOSH        CLOUDY    13   3  64 NW14G26   29.94S WCI  -2
$$

WIZ032>034-041-042-053>061-100500-
SOUTHWEST WISCONSIN

CITY           SKY/WX    TMP DP  RH WIND       PRES   REMARKS
LA CROSSE      CLEAR      2  -6  69 NW8       30.08S WCI -12
SPARTA         CLEAR     -3  -6  87 CALM      30.06S
VIROQUA        CLEAR      4  -4  70 NW7       30.00S WCI  -8
BOSCOBEL       CLEAR      9  -1  64 CALM      30.07S
PRAIRIE DU CHI CLEAR      9  -2  61 NW5       30.08F WCI   0
PLATTEVILLE    CLEAR      9   1  68 NW10      30.03R WCI  -5
$$

WIZ056-057-062-063-064-067-068-100500-
SOUTH CENTRAL WISCONSIN

CITY           SKY/WX    TMP DP  RH WIND       PRES   REMARKS
REEDSBURG      CLEAR      9  -1  66 NW7       30.02R WCI  -3
BARABOO/DELLS  CLOUDY    11   0  61 NW9       30.00R WCI  -2
LONE ROCK      NOT AVBL
MINERAL POINT  CLEAR     10   0  61 NW9       30.00R WCI  -2
MADISON        PTCLDY    10   0  63 NW9       29.98R WCI  -3
MIDDLETON      CLOUDY    12   1  63 NW10      30.00R WCI  -2
WATERTOWN      CLOUDY    13   4  68 NW14G23   29.95R WCI  -2
MONROE         PTCLDY    10   1  67 NW14      29.98R WCI  -5
JANESVILLE     CLOUDY    16   3  57 NW15G22   29.97R WCI   1
$$

WIZ051-052-058>065-066-070>072-100500-
SOUTHEAST WISCONSIN

CITY           SKY/WX    TMP DP  RH WIND       PRES   REMARKS
MILWAUKEE      LGT SNOW  15   9  76 NW14      29.92S WCI   0
WAUKESHA       CLOUDY    12   7  79 NW15G22   29.93S WCI  -4
MILWAUKEE/TIMM LGT SNOW  14   9  79 NW15      29.93S WCI  -1
RACINE         FLURRIES  15   8  73 NW10      29.93S WCI   2
BURLINGTON     CLOUDY    12   4  70 NW15G21   29.94S WCI  -4
KENOSHA        CLOUDY    14   6  70 NW14      29.92S WCI  -1
FOND DU LAC    CLOUDY    13   5  70 NW13      29.94S WCI  -2
SHEBOYGAN      FLURRIES  13   5  70 NW15G24   29.91S WCI  -3
WEST BEND      CLOUDY    14   7  73 NW13      29.91S WCI   0
JUNEAU         MOCLDY    11   3  70 NW10G17   29.95R WCI  -2
$$

LSZ147-162-100500-
LAKE SUPERIOR

STATION/POSITION TIME  TEMP    WIND        PRES    WAVE
                       AIR SEA DIR/SP/G            HT/PER
                 (UTC) (F)     (DEG/KT/KT) (MB)    (FT/S)
DEVILS ISLAND    0300    8     350/ 17/ 24 1021.0S
PORT WING        0300    9     340/ 15/ 24 1020.3
SAXON HARBOR     0340   11                 1017.9S
$$

LMZ867-665-643>646-100500-
LAKE MICHIGAN

STATION/POSITION TIME  TEMP    WIND        PRES    WAVE
                       AIR SEA DIR/SP/G            HT/PER
                 (UTC) (F)     (DEG/KT/KT) (MB)    (FT/S)
CHAMBERS ISLAND  0300   13     300/ 13/ 20 1012.2S
ALGOMA LAKESHORE 0311          320/ 11/ 17   N/A
KEWAUNEE LAKESHO 0300   13     360/ 13/ 18 1011.9F
SHEBOYGAN LAKESH 0300   15     310/ 17/ 20 1014.4R
PORT WASHINGTON  0300   17     320/  8/ 15 1014.6
MILWAUKEE LAKESH 0310   17     320/ 10/ 14   N/A
KENOSHA   LAKESH 0300   15     300/ 17/ 21 1013.2S
$$

TC  - TEMPERATURE IN CELSIUS
VSB - VISIBILITY IN STATUTE MILES
WCI - WIND CHILL INDEX
HX  - HEAT INDEX




USA.gov is the U.S. government's official web portal to all federal, state and local government web resources and services.